| time (UTC) | temp F | wind direction | speed MPH | gust MPH | rain 1hr in | rain 24hr in | rain mn in | humidity % | barometer mb |
| 20260509054529 | 53 | 209 | 6.0 | 10.0 | 0.00 | 0.13 | 0.00 | 94 | 1006.0 |
| 20260509053028 | 53 | 217 | 6.0 | 10.0 | 0.00 | 0.13 | 0.00 | 94 | 1005.9 |
| 20260509051533 | 54 | 209 | 7.0 | 10.0 | 0.00 | 0.13 | 0.00 | 94 | 1005.9 |
| 20260509050023 | 54 | 232 | 4.0 | 8.0 | 0.00 | 0.13 | 0.00 | 93 | 1005.9 |
| 20260509044521 | 54 | 215 | 3.0 | 8.0 | 0.00 | 0.13 | 0.00 | 93 | 1006.0 |
| 20260509043019 | 54 | 210 | 3.0 | 6.0 | 0.00 | 0.13 | 0.00 | 93 | 1006.1 |
| 20260509041518 | 54 | 211 | 5.0 | 8.0 | 0.00 | 0.13 | 0.00 | 93 | 1006.0 |
| 20260509040015 | 54 | 208 | 5.0 | 8.0 | 0.00 | 0.13 | 0.00 | 93 | 1006.1 |
| 20260509034535 | 55 | 219 | 5.0 | 7.0 | 0.00 | 0.13 | 0.13 | 92 | 1006.1 |
| 20260509033014 | 55 | 210 | 3.0 | 5.0 | 0.00 | 0.13 | 0.13 | 92 | 1006.2 |
| 20260509031513 | 55 | 210 | 3.0 | 5.0 | 0.00 | 0.13 | 0.13 | 92 | 1006.3 |
| 20260509030015 | 55 | 217 | 2.0 | 5.0 | 0.00 | 0.13 | 0.13 | 92 | 1006.4 |
| 20260509024512 | 55 | 198 | 4.0 | 7.0 | 0.00 | 0.13 | 0.13 | 92 | 1006.3 |
| 20260509023011 | 55 | 214 | 3.0 | 5.0 | 0.00 | 0.13 | 0.13 | 91 | 1006.4 |
| 20260509021511 | 55 | 196 | 3.0 | 5.0 | 0.00 | 0.13 | 0.13 | 91 | 1006.4 |
| 20260509020010 | 55 | 216 | 3.0 | 6.0 | 0.00 | 0.13 | 0.13 | 91 | 1006.2 |
| 20260509014509 | 55 | 221 | 3.0 | 6.0 | 0.00 | 0.13 | 0.13 | 91 | 1006.2 |
| 20260509013009 | 55 | 223 | 2.0 | 5.0 | 0.00 | 0.13 | 0.13 | 90 | 1006.4 |
| 20260509011509 | 55 | 206 | 4.0 | 8.0 | 0.00 | 0.13 | 0.13 | 89 | 1006.3 |
| 20260509010009 | 56 | 194 | 5.0 | 10.0 | 0.00 | 0.13 | 0.13 | 89 | 1006.2 |
| 20260509004506 | 56 | 222 | 5.0 | 10.0 | 0.00 | 0.13 | 0.13 | 88 | 1006.3 |
| 20260509003006 | 56 | 254 | 5.0 | 9.0 | 0.00 | 0.13 | 0.13 | 87 | 1006.3 |
| 20260509001505 | 56 | 249 | 5.0 | 8.0 | 0.00 | 0.13 | 0.13 | 87 | 1006.4 |
| 20260509000004 | 56 | 217 | 6.0 | 10.0 | 0.00 | 0.13 | 0.13 | 86 | 1006.4 |
| 20260508234504 | 57 | 205 | 5.0 | 10.0 | 0.00 | 0.13 | 0.13 | 87 | 1006.4 |
| 20260508233002 | 57 | 205 | 5.0 | 11.0 | 0.00 | 0.13 | 0.13 | 87 | 1006.5 |
| 20260508231502 | 57 | 194 | 5.0 | 10.0 | 0.00 | 0.13 | 0.13 | 87 | 1006.6 |
| 20260508230000 | 57 | 236 | 4.0 | 9.0 | 0.00 | 0.13 | 0.13 | 87 | 1006.6 |
| 20260508224600 | 57 | 207 | 3.0 | 7.0 | 0.00 | 0.13 | 0.13 | 88 | 1006.6 |
| 20260508223059 | 57 | 229 | 4.0 | 11.0 | 0.00 | 0.13 | 0.13 | 89 | 1006.7 |
| 20260508221559 | 57 | 200 | 5.0 | 12.0 | 0.00 | 0.13 | 0.13 | 89 | 1006.7 |
| 20260508220100 | 57 | 206 | 5.0 | 13.0 | 0.00 | 0.13 | 0.13 | 89 | 1006.7 |
| 20260508214607 | 57 | 259 | 7.0 | 14.0 | 0.00 | 0.14 | 0.13 | 89 | 1006.6 |
| 20260508213106 | 57 | 214 | 7.0 | 12.0 | 0.00 | 0.14 | 0.13 | 88 | 1006.6 |
| 20260508211556 | 57 | 211 | 6.0 | 12.0 | 0.00 | 0.14 | 0.13 | 88 | 1006.7 |
| 20260508210055 | 57 | 206 | 7.0 | 14.0 | 0.00 | 0.14 | 0.13 | 89 | 1006.9 |
| 20260508204552 | 57 | 197 | 9.0 | 16.0 | 0.01 | 0.14 | 0.13 | 91 | 1007.1 |
| 20260508203052 | 57 | 204 | 9.0 | 15.0 | 0.02 | 0.14 | 0.13 | 91 | 1007.1 |
| 20260508201549 | 56 | 227 | 5.0 | 11.0 | 0.03 | 0.14 | 0.13 | 90 | 1007.5 |
| 20260508200046 | 56 | 234 | 3.0 | 7.0 | 0.04 | 0.14 | 0.13 | 91 | 1007.8 |
| 20260508194542 | 56 | 175 | 4.0 | 7.0 | 0.07 | 0.13 | 0.12 | 91 | 1008.0 |
| 20260508193050 | 56 | 233 | 4.0 | 10.0 | 0.08 | 0.12 | 0.11 | 91 | 1008.0 |
| 20260508191546 | 56 | 250 | 8.0 | 11.0 | 0.07 | 0.11 | 0.10 | 90 | 1008.3 |
| 20260508190048 | 56 | 236 | 3.0 | 14.0 | 0.07 | 0.10 | 0.09 | 87 | 1008.2 |
| 20260508184535 | 57 | 269 | 5.0 | 14.0 | 0.03 | 0.06 | 0.05 | 81 | 1008.4 |
| 20260508183038 | 59 | 261 | 10.0 | 17.0 | 0.01 | 0.04 | 0.03 | 77 | 1008.2 |
| 20260508181529 | 60 | 242 | 6.0 | 12.0 | 0.01 | 0.04 | 0.03 | 75 | 1008.3 |
| 20260508180029 | 62 | 227 | 6.0 | 14.0 | 0.00 | 0.03 | 0.02 | 67 | 1008.4 |
| 20260508174525 | 62 | 279 | 4.0 | 10.0 | 0.00 | 0.03 | 0.02 | 66 | 1008.5 |
| 20260508173023 | 61 | 206 | 5.0 | 12.0 | 0.00 | 0.03 | 0.02 | 65 | 1008.8 |
| 20260508171521 | 61 | 203 | 5.0 | 13.0 | 0.00 | 0.03 | 0.02 | 65 | 1008.8 |
| 20260508170031 | 61 | 203 | 4.0 | 10.0 | 0.00 | 0.03 | 0.02 | 64 | 1009.1 |
| 20260508164522 | 60 | 232 | 5.0 | 11.0 | 0.00 | 0.03 | 0.02 | 66 | 1009.3 |
| 20260508163017 | 59 | 255 | 6.0 | 12.0 | 0.00 | 0.03 | 0.02 | 65 | 1009.7 |
| 20260508161512 | 59 | 236 | 4.0 | 12.0 | 0.00 | 0.03 | 0.02 | 68 | 1010.0 |
| 20260508160005 | 58 | 221 | 3.0 | 8.0 | 0.00 | 0.03 | 0.02 | 70 | 1010.1 |
| 20260508154504 | 57 | 201 | 7.0 | 13.0 | 0.00 | 0.03 | 0.02 | 69 | 1010.2 |
| 20260508153007 | 57 | 211 | 7.0 | 10.0 | 0.00 | 0.03 | 0.02 | 68 | 1010.2 |
| 20260508151603 | 57 | 269 | 4.0 | 13.0 | 0.00 | 0.03 | 0.02 | 72 | 1010.2 |
| 20260508150058 | 56 | 223 | 4.0 | 11.0 | 0.00 | 0.03 | 0.02 | 72 | 1010.3 |
| 20260508144553 | 54 | 207 | 6.0 | 10.0 | 0.01 | 0.03 | 0.02 | 75 | 1010.4 |
| 20260508143056 | 53 | 211 | 3.0 | 8.0 | 0.01 | 0.03 | 0.02 | 77 | 1010.7 |
| 20260508141600 | 52 | 215 | 3.0 | 6.0 | 0.01 | 0.03 | 0.02 | 81 | 1010.8 |
| 20260508140045 | 52 | 233 | 2.0 | 6.0 | 0.01 | 0.03 | 0.02 | 80 | 1011.0 |
| 20260508134545 | 52 | 234 | 2.0 | 5.0 | 0.00 | 0.02 | 0.01 | 79 | 1011.1 |
| 20260508133045 | 51 | 233 | 2.0 | 5.0 | 0.00 | 0.02 | 0.01 | 80 | 1011.0 |
| 20260508131556 | 52 | 277 | 3.0 | 8.0 | 0.00 | 0.02 | 0.01 | 78 | 1011.2 |
| 20260508130042 | 52 | 222 | 5.0 | 10.0 | 0.00 | 0.02 | 0.01 | 76 | 1010.7 |
| 20260508124539 | 52 | 209 | 6.0 | 10.0 | 0.00 | 0.02 | 0.01 | 77 | 1010.6 |
| 20260508123038 | 51 | 212 | 5.0 | 9.0 | 0.00 | 0.02 | 0.01 | 80 | 1010.8 |
| 20260508121535 | 50 | 204 | 5.0 | 9.0 | 0.00 | 0.02 | 0.01 | 80 | 1010.8 |
| 20260508120036 | 50 | 219 | 4.0 | 8.0 | 0.00 | 0.02 | 0.01 | 82 | 1010.7 |
| 20260508114536 | 50 | 230 | 4.0 | 10.0 | 0.01 | 0.02 | 0.01 | 83 | 1010.7 |
| 20260508113030 | 50 | 210 | 5.0 | 10.0 | 0.01 | 0.02 | 0.01 | 84 | 1010.7 |
| 20260508111528 | 50 | 210 | 4.0 | 10.0 | 0.01 | 0.02 | 0.01 | 83 | 1010.5 |
| 20260508110030 | 50 | 221 | 6.0 | 10.0 | 0.01 | 0.02 | 0.01 | 83 | 1010.4 |
| 20260508104529 | 50 | 219 | 6.0 | 11.0 | 0.00 | 0.01 | 0.00 | 83 | 1010.5 |
| 20260508103032 | 50 | 239 | 7.0 | 12.0 | 0.00 | 0.01 | 0.00 | 80 | 1010.3 |
| 20260508101523 | 51 | 265 | 6.0 | 10.0 | 0.00 | 0.01 | 0.00 | 76 | 1010.5 |
| 20260508100022 | 51 | 259 | 6.0 | 12.0 | 0.00 | 0.01 | 0.00 | 77 | 1010.6 |
| 20260508094524 | 51 | 246 | 5.0 | 9.0 | 0.00 | 0.01 | 0.00 | 77 | 1010.5 |
| 20260508093035 | 51 | 265 | 6.0 | 12.0 | 0.00 | 0.01 | 0.00 | 77 | 1010.3 |
| 20260508091530 | 51 | 199 | 6.0 | 14.0 | 0.00 | 0.01 | 0.00 | 75 | 1010.6 |
| 20260508090019 | 51 | 254 | 7.0 | 18.0 | 0.00 | 0.01 | 0.00 | 76 | 1010.6 |
| 20260508084518 | 51 | 190 | 8.0 | 23.0 | 0.00 | 0.01 | 0.00 | 73 | 1010.8 |
| 20260508083017 | 52 | 235 | 8.0 | 12.0 | 0.00 | 0.01 | 0.00 | 72 | 1010.5 |
| 20260508081517 | 52 | 180 | 5.0 | 11.0 | 0.00 | 0.01 | 0.00 | 73 | 1010.4 |
| 20260508080013 | 51 | 213 | 5.0 | 10.0 | 0.00 | 0.01 | 0.00 | 77 | 1010.3 |
| 20260508074514 | 50 | 248 | 4.0 | 10.0 | 0.00 | 0.01 | 0.00 | 77 | 1010.6 |
| 20260508073012 | 51 | 231 | 6.0 | 13.0 | 0.00 | 0.01 | 0.00 | 75 | 1010.5 |
| 20260508071514 | 51 | 229 | 6.0 | 11.0 | 0.00 | 0.01 | 0.00 | 72 | 1010.8 |
| 20260508070006 | 52 | 215 | 8.0 | 13.0 | 0.00 | 0.01 | 0.00 | 70 | 1010.8 |
| 20260508064501 | 51 | 218 | 6.0 | 11.0 | 0.00 | 0.01 | 0.00 | 71 | 1010.9 |
| 20260508063107 | 51 | 217 | 7.0 | 12.0 | 0.00 | 0.01 | 0.00 | 72 | 1010.9 |
| 20260508061557 | 51 | 198 | 6.0 | 10.0 | 0.00 | 0.01 | 0.00 | 74 | 1010.8 |
| 20260508060053 | 50 | 205 | 6.0 | 12.0 | 0.00 | 0.01 | 0.00 | 76 | 1010.9 |